Flag for Mexico Weather past 2 weeks in Cancún, Quintana Roo, Mexico

Now
88 °F

Partly sunny.


Feels Like: 100 °F
Forecast: 80 / 90 °F
Wind: 10 mph from East

Location: Cancun International Airport

Current Time: Aug 2, 2015 at 7:57:50 PM

Latest Report: Aug 2, 2015 at 4:47 PM


Visibility: 7 mi

Pressure: 29.92 "Hg

Humidity: 70%

Dew point: 77 °F

Location of CancúnLocation

Historic Weather in Cancún — Graph

°F

Cancún temperature yesterday

Maximum temperature yesterday: 91 °F (at 2:44 PM)
Minimum temperature yesterday: 75 °F (at 5:45 AM)
Average temperature yesterday: 83 °F

Past Weeks' High & Low Weather Summary

 TemperatureHumidityPressure
High91 °F (Jul 24, 2:43 PM)100% (Jul 20, 5:45 AM)30.09 "Hg (Jul 20, 5:45 AM)
Low72 °F (Jul 21, 5:46 AM)52% (Jul 26, 1:50 PM)29.91 "Hg (Aug 1, 5:43 PM)
Average82 °F82%30.00 "Hg
* Reported Jul 18 5:40 PM — Aug 2 4:47 PM, Cancún, Weather by CustomWeather, © 2015

Note: Actual official high and low records may vary slightly from our data, if they occured in-between our weather recording intervals... More about our weather records

Advertising

Cancún weather history for previous 24 hours

 ConditionsComfort  
Time TempWeatherWind HumidityBarometerVisibility
4:47 PM
Sun, Aug 2
88 °FPartly sunny.10 mph70%29.92 "Hg7 mi
3:45 PM90 °FPartly sunny.10 mph67%29.93 "Hg7 mi
1:40 PM90 °FBroken clouds.13 mph63%29.95 "Hg7 mi
12:40 PM88 °FBroken clouds.12 mph66%29.97 "Hg7 mi
11:42 AM88 °FPartly sunny.13 mph66%29.97 "Hg7 mi
10:43 AM88 °FPartly sunny.14 mph66%29.98 "Hg7 mi
9:40 AM88 °FPartly sunny.8 mph70%29.98 "Hg7 mi
8:41 AM84 °FBroken clouds.7 mph74%29.96 "Hg7 mi
7:43 AM81 °FBroken clouds.5 mph89%29.95 "Hg7 mi
6:45 AM75 °FPassing clouds.No wind94%29.95 "Hg7 mi
5:46 AM73 °FPassing clouds.No wind100%29.92 "Hg7 mi
4:47 AM73 °FPassing clouds.No wind100%29.93 "Hg7 mi
3:48 AM75 °FClear.No wind100%29.93 "Hg7 mi
2:43 AM77 °FClear.No wind100%29.94 "Hg7 mi
1:44 AM79 °FClear.6 mph94%29.96 "Hg7 mi
12:45 AM79 °FClear.6 mph94%29.97 "Hg7 mi
11:46 PM
Sat, Aug 1
81 °FClear.6 mph89%29.99 "Hg7 mi
10:47 PM82 °FPassing clouds.6 mph84%29.98 "Hg7 mi
9:48 PM82 °FPassing clouds.7 mph84%29.99 "Hg7 mi
7:44 PM84 °FPassing clouds.8 mph79%29.94 "Hg7 mi
Weather by CustomWeather, © 2015

See weather overviewHow to use our weather pages